Regional Weather Roundup
Issued by NWS Charleston, WV

Home | Current Version | Previous Version | Graphics & Text | Print | Product List | Glossary On
Versions: 1 2 3 4 5 6 7 8 9 10 11 12 13 14 15 16 17 18 19 20 21 22 23 24 25 26 27 28 29 30 31 32 33 34 35 36 37 38 39 40 41 42 43 44 45 46 47 48 49 50
000
ASUS41 KRLX 242110
RWRRLX
West Virginia Regional Weather Roundup
National Weather Service Charleston WV
500 PM EDT WED AUG 24 2016

Note: "fair" indicates few or no clouds below 12,000 feet with no
significant weather and/or obstructions to visibility.

WVZ003-242200-
Northern Panhandle of West Virginia

CITY           SKY/WX    TMP DP  RH WIND       PRES   REMARKS
WHEELING       SUNNY     85  64  49 S9        30.14F
$$

WVZ009-242200-
Northwest West Virginia

CITY           SKY/WX    TMP DP  RH WIND       PRES   REMARKS
PARKERSBURG    PTSUNNY   85  66  53 S9        30.16F
$$

WVZ006-242200-
Western West Virginia

CITY           SKY/WX    TMP DP  RH WIND       PRES   REMARKS
HUNTINGTON     MOSUNNY   85  70  60 S6        30.14F
$$

WVZ015-242200-
West Central West Virginia

CITY           SKY/WX    TMP DP  RH WIND       PRES   REMARKS
CHARLESTON     MOSUNNY   86  68  54 S6        30.16F
$$

WVZ022-031-242200-
North Central West Virginia

CITY           SKY/WX    TMP DP  RH WIND       PRES   REMARKS
CLARKSBURG     MOSUNNY   84  64  50 SW9       30.16F
MORGANTOWN     MOSUNNY   85  62  46 S8        30.17F
$$

WVZ025-035-042-045-242200-
Southern West Virginia

CITY           SKY/WX    TMP DP  RH WIND       PRES   REMARKS
BECKLEY        MOSUNNY   80  65  59 SW8       30.27F
LOGAN            N/A     82  70  65 CALM      30.19F
BLUEFIELD      CLOUDY    75  63  66 CALM      30.31F
LEWISBURG      SUNNY     78  64  62 SW7       30.27F
$$

WVZ047-242200-
Northern Mountains of West Virginia

CITY           SKY/WX    TMP DP  RH WIND       PRES   REMARKS
ELKINS         PTSUNNY   84  59  42 W6        30.21F
$$

WVZ052-242200-
Eastern Panhandle of West Virginia

CITY           SKY/WX    TMP DP  RH WIND       PRES   REMARKS
MARTINSBURG    MOSUNNY   83  66  56 S8        30.16F
PETERSBURG     SUNNY     89  65  45 SE9       30.15S
$$




USA.gov is the U.S. government's official web portal to all federal, state and local government web resources and services.